Probability
0 0 0 0 0 0 0 0 0 0 0 0 0 0 0 0 0 0 0 0 0 1 0 1 1 1 1 2 1 0 1 2 3 3 3 3 3 3 2 1 0 0 0
0 0 0 0 0 0 0 0 0 0 0 0 0 0 0 0 0 0 0 0 1 1 1 0 0 0 1 2 1 0 1 2 3 3 3 3 2 2 1 1 0 0 0
0 0 0 0 0 0 0 0 0 0 0 0 0 0 0 0 0 0 0 1 2 2 1 0 0 0 1 1 1 0 1 2 2 3 3 2 1 1 0 0 0 0 0
0 0 0 0 0 0 0 0 0 0 0 0 0 0 0 0 0 0 0 1 1 1 0 0 0 0 0 0 0 0 0 1 1 1 1 1 1 1 1 1 0 0 0
0 0 0 0 0 0 0 0 0 0 0 0 0 0 0 0 0 0 0 0 1 1 0 0 0 0 0 0 0 0 0 0 1 0 0 1 2 2 2 2 1 0 0
0 0 0 0 0 0 0 0 0 0 0 0 0 0 0 0 0 0 0 0 0 1 0 0 0 0 0 0 0 0 0 0 0 0 0 1 2 3 3 2 1 0 1
0 0 0 0 0 0 0 0 0 0 0 0 0 0 0 0 0 0 0 0 0 0 0 0 0 1 0 0 0 0 0 0 0 0 0 1 3 3 3 2 1 1 2
0 0 0 0 0 0 0 0 0 0 0 0 0 0 0 0 0 0 0 0 0 0 0 0 0 0 0 0 0 0 0 0 0 0 1 2 3 3 3 2 2 3 3
0 0 0 0 0 0 0 0 0 0 0 0 0 0 0 0 0 0 0 0 0 0 0 0 0 0 0 0 0 0 0 0 1 2 2 3 3 3 3 3 4 4 4
0 0 0 0 0 0 0 0 0 0 0 0 0 0 0 0 0 0 0 0 0 0 0 0 0 0 0 0 0 0 1 1 2 3 4 4 3 3 3 3 3 3 2
0 0 0 0 0 0 0 0 0 0 0 0 0 0 0 0 0 0 0 0 0 0 0 0 0 0 0 0 1 1 2 2 3 5 6 5 4 3 3 3 3 2 1
0 0 0 0 0 0 0 0 0 0 0 0 0 0 0 0 0 0 0 0 0 0 0 0 0 0 0 1 2 3 3 3 4 5 6 5 4 4 3 3 3 3 2
0 0 0 0 0 0 0 0 0 0 0 0 0 0 0 0 0 0 0 0 0 0 0 0 0 0 0 1 3 3 3 3 4 5 6 5 4 4 4 4 5 3 2
0 0 1 1 0 0 0 0 0 0 0 0 0 0 0 0 0 0 0 0 0 0 0 0 0 0 1 2 3 3 3 3 4 5 5 5 6 5 4 4 5 3 1
0 1 2 2 1 1 1 0 0 0 0 0 0 0 0 0 0 0 0 0 0 0 0 0 0 1 2 3 3 3 3 3 3 3 4 5 5 5 4 4 3 1 0
0 1 2 3 2 1 1 0 0 0 0 0 0 0 0 0 0 0 0 0 0 0 0 0 0 1 2 2 2 2 2 1 1 1 2 2 3 4 5 4 2 0 0
0 1 2 3 3 2 1 0 0 0 0 0 0 0 0 0 0 0 0 0 0 0 0 0 0 0 1 1 1 1 1 0 0 0 1 1 1 2 3 3 1 0 0
0 1 2 3 3 3 2 1 1 0 0 0 0 0 0 0 0 0 0 0 0 0 0 0 0 0 0 0 0 0 0 0 0 0 0 0 0 1 1 1 1 0 0
0 1 2 3 3 3 3 3 2 1 1 1 0 0 0 0 0 0 0 0 0 0 0 0 0 0 1 1 1 0 0 0 0 0 0 0 0 0 0 0 0 0 0
0 0 1 3 3 3 3 3 3 3 2 2 1 1 1 1 0 0 0 0 0 0 0 0 0 0 1 2 2 1 0 0 0 0 0 0 0 0 0 0 0 0 0
0 0 1 2 3 3 3 3 3 3 3 3 3 2 2 2 1 0 1 1 2 1 0 0 0 0 0 1 2 2 1 1 0 0 0 0 0 0 0 0 0 0 0
0 0 1 3 3 3 3 3 3 1 1 2 3 3 3 3 2 2 2 3 3 2 1 0 0 0 0 0 1 2 3 2 1 1 0 0 0 0 0 0 0 0 0
1 1 2 3 3 3 3 3 3 1 1 2 3 3 3 3 3 3 3 3 3 2 1 0 0 0 0 0 1 2 3 3 3 2 1 0 0 0 0 0 0 0 0
2 3 3 3 3 3 3 3 3 3 2 2 2 2 3 3 3 3 3 3 3 2 1 0 0 0 0 0 0 1 1 2 3 3 1 0 0 0 0 0 0 0 0
3 3 3 4 4 4 3 2 2 2 2 1 1 1 1 2 2 2 2 1 1 1 1 0 0 0 0 0 0 0 0 1 3 3 2 1 0 0 0 0 0 0 0
3 3 4 5 5 4 2 1 1 1 1 0 0 0 0 1 1 1 1 0 0 1 0 0 0 0 0 0 0 0 0 1 2 3 2 1 0 0 0 0 0 0 0
Wind_Speed
2 3 5 5 5 5 5 5 5 5 5 5 5 6 5 5 4 4 4 5 5 5 5 5 5 5 5 5 5 5 5 6 6 6 5 5 5 5 5 4 3 3 6
3 4 5 5 5 6 6 6 6 6 5 5 5 6 6 6 5 5 5 6 6 5 5 5 5 5 5 5 5 6 7 7 6 5 5 6 6 5 5 4 2 4 6
3 4 4 5 6 6 6 6 6 6 6 6 6 6 6 6 6 6 6 6 7 6 6 5 6 6 6 6 6 6 6 6 6 5 3 3 6 6 5 4 5 5 5
4 4 6 6 5 6 6 7 7 6 6 7 7 6 6 6 6 6 7 7 7 6 6 5 6 6 7 6 7 7 6 6 5 2 2 3 4 7 5 5 5 5 5
4 4 7 6 6 6 6 7 7 7 7 7 7 7 7 7 6 7 7 7 7 6 6 6 6 6 6 6 6 6 6 5 4 1 3 3 4 7 6 6 5 5 4
4 5 7 6 7 6 6 7 8 7 7 7 7 7 7 7 7 7 7 7 7 7 7 6 6 7 7 6 5 5 5 4 2 3 3 3 4 6 5 5 5 5 4
5 5 7 7 7 6 6 7 7 8 8 8 8 8 8 7 7 7 7 7 7 7 7 7 7 7 7 6 5 6 5 2 2 3 2 3 5 5 5 5 5 4 4
5 4 6 7 7 7 8 7 7 8 9 9 9 9 9 8 8 8 8 8 8 8 8 8 7 7 7 6 6 6 5 2 2 3 3 4 6 5 5 5 5 4 4
4 4 4 5 6 7 7 8 8 9 9 10 10 10 9 9 9 9 8 8 8 7 8 7 7 7 7 7 7 6 5 3 2 2 3 4 6 5 4 5 5 4 5
4 4 4 5 5 5 7 9 8 9 9 9 9 9 8 8 9 8 8 9 9 9 9 8 8 7 7 7 7 6 3 0 2 3 3 5 6 5 4 5 5 5 5
4 4 4 4 5 5 6 7 6 7 6 5 7 7 3 5 7 7 11 10 10 10 10 9 9 7 6 7 7 4 1 2 3 3 4 6 6 5 5 5 5 5 5
5 4 4 4 4 5 4 4 3 4 4 4 5 5 4 5 6 6 9 9 9 9 8 8 6 4 2 4 5 2 2 3 3 3 5 6 6 6 5 5 6 6 5
4 4 4 4 4 4 3 3 3 3 3 4 5 5 4 4 3 3 3 4 5 4 5 5 2 3 4 4 4 4 4 4 3 4 7 8 7 7 6 6 6 6 5
4 4 4 3 4 4 4 3 3 3 3 3 3 5 3 3 3 4 3 4 3 3 3 3 3 5 5 6 5 5 5 4 3 3 7 10 9 8 7 7 6 6 6
4 4 4 3 3 4 4 2 3 3 3 3 3 3 4 3 3 3 3 3 4 3 3 3 4 6 6 6 6 6 6 6 6 5 5 11 10 10 10 9 8 8 8
3 3 4 3 3 3 3 2 3 3 2 3 3 3 4 3 3 3 4 4 4 4 4 3 5 5 5 5 6 6 6 6 6 6 5 7 10 11 11 11 9 9 9
3 3 4 3 3 3 3 3 2 2 2 2 3 3 4 3 3 3 3 3 3 3 3 4 5 4 5 5 6 6 6 6 6 6 6 4 6 10 11 11 10 9 9
3 4 4 3 3 3 2 2 2 2 2 2 2 3 4 4 4 3 3 3 3 3 3 3 4 4 4 4 4 5 5 5 6 6 6 5 5 5 8 11 11 10 9
3 3 4 4 3 3 3 2 2 2 2 2 2 3 3 4 3 3 3 2 3 2 3 3 4 3 4 4 4 4 4 5 5 5 6 6 6 5 5 7 9 11 10
3 3 4 4 4 4 2 2 2 2 2 2 2 3 3 3 3 3 2 2 3 2 2 3 4 3 3 3 4 4 4 4 4 5 5 5 5 6 6 5 4 7 11
4 4 4 4 5 4 3 2 2 2 2 2 2 3 2 2 2 3 1 2 2 2 2 3 3 4 3 2 2 3 4 4 4 4 3 3 4 5 5 5 4 4 4
4 5 5 4 4 4 2 2 2 2 1 2 2 2 2 2 2 1 1 1 2 1 2 2 2 1 2 0 1 0 1 3 3 3 2 3 3 3 4 4 4 4 4
4 4 3 4 4 4 4 2 2 2 2 2 2 2 1 2 1 1 1 1 1 1 1 1 1 1 1 1 1 2 1 1 1 2 2 2 2 2 3 3 3 4 4
4 4 4 4 4 4 4 4 4 2 2 1 1 1 2 2 1 1 1 1 1 1 1 1 0 0 1 0 1 1 2 1 0 1 1 2 2 2 2 2 2 3 3
4 4 3 4 4 4 4 4 4 3 2 1 1 2 1 1 1 1 1 1 1 1 1 1 1 1 0 0 0 1 1 1 1 0 1 1 1 1 1 1 1 2 2
4 4 3 4 4 4 4 4 4 3 3 3 2 1 1 1 1 1 1 2 2 1 2 1 1 1 1 0 1 0 0 0 1 0 1 1 1 1 1 1 1 1 1
Wind_Direction
24 21 24 7 21 31 38 43 55 60 70 77 75 77 79 80 78 80 90 95 99 97 90 90 94 96 96 91 85 82 98 121 119 118 120 123 123 124 124 129 164 131 98
29 35 41 24 32 37 45 53 55 61 69 74 74 77 74 72 70 73 79 88 91 86 85 85 88 90 92 92 89 86 90 101 106 108 118 121 112 107 108 103 62 78 98
50 45 57 45 42 45 49 52 52 62 67 66 66 69 70 70 65 72 79 85 83 78 78 81 86 89 89 90 90 88 89 96 99 101 134 117 108 98 95 93 93 90 96
56 51 50 47 45 48 51 51 54 62 65 66 65 67 67 68 64 72 79 85 84 82 78 78 82 86 85 85 86 87 88 92 95 120 120 87 95 94 89 89 91 93 94
66 62 61 45 52 54 56 54 55 61 59 65 69 71 71 71 72 75 76 85 93 93 86 80 76 79 81 83 84 87 87 91 100 114 78 76 77 88 87 85 81 87 96
79 70 69 46 54 57 58 61 57 61 60 59 65 68 70 68 71 74 77 81 88 91 89 84 79 76 77 76 81 84 89 92 147 82 75 81 86 90 92 93 91 85 86
75 75 78 56 54 58 63 64 64 63 64 63 63 65 68 65 67 70 73 77 78 80 83 83 79 76 77 75 71 75 80 74 82 83 76 73 72 79 94 97 99 93 84
80 83 92 84 62 59 62 67 66 66 66 66 66 65 66 64 67 70 71 76 78 76 78 82 82 78 79 79 75 70 61 4 91 81 76 75 70 74 86 95 98 92 83
86 85 82 89 97 90 75 68 70 68 67 65 66 67 66 68 70 70 71 74 76 75 77 77 83 81 76 71 69 66 59 26 50 69 76 73 72 69 79 92 98 94 83
97 89 80 81 76 81 89 81 72 69 66 68 70 69 73 85 83 77 78 72 69 70 70 73 75 78 73 70 67 63 53 343 50 62 56 71 74 80 84 88 87 87 84
105 98 95 89 82 78 78 89 92 91 79 94 95 85 81 79 78 79 66 68 67 66 66 67 69 74 85 86 71 60 44 64 68 55 53 61 70 75 79 83 86 87 84
109 99 89 89 88 83 79 89 81 80 78 66 68 69 63 65 66 69 83 74 72 73 77 72 77 97 100 89 92 83 60 61 66 70 64 59 66 70 69 75 83 80 82
101 104 101 95 90 86 88 77 70 67 68 67 64 70 65 71 82 74 84 96 89 87 77 87 94 70 71 64 54 58 48 42 50 57 61 56 58 65 71 76 81 76 72
115 112 109 104 99 90 87 82 76 71 66 63 59 63 63 63 59 64 63 59 60 63 57 51 55 75 72 71 64 60 60 55 59 62 61 51 52 58 62 64 79 76 70
127 129 117 116 101 98 90 86 82 71 59 70 56 58 67 68 66 68 66 57 54 55 56 44 57 75 68 63 59 54 53 55 60 62 71 58 52 54 57 63 66 71 70
149 141 137 140 126 120 114 103 78 69 77 60 66 64 71 75 75 70 68 59 54 49 46 47 59 68 67 63 62 57 51 52 57 61 63 72 63 55 53 55 61 67 67
156 150 141 140 141 134 113 95 85 78 67 67 67 66 75 71 73 71 68 70 67 66 65 56 61 59 69 70 70 61 55 48 52 58 56 50 65 66 55 51 57 63 64
170 158 148 155 161 141 128 120 98 86 75 73 71 59 65 70 65 66 69 72 74 68 66 66 61 63 68 67 66 62 62 60 55 51 53 52 46 50 62 55 54 58 64
186 178 162 156 159 147 140 135 105 90 86 77 76 68 60 65 67 77 67 71 81 73 69 71 67 64 69 68 68 65 62 60 58 54 51 49 54 50 53 66 61 55 57
191 193 173 154 173 150 157 154 126 102 94 85 80 81 67 63 66 79 90 92 88 87 80 83 87 77 71 71 73 68 65 66 62 57 50 49 47 49 47 47 58 67 59
184 190 177 173 169 164 166 168 146 124 113 98 76 72 81 75 71 76 75 74 78 86 93 102 104 108 103 92 95 92 88 76 63 60 53 50 55 49 51 48 44 44 63
178 188 181 179 171 169 170 158 146 121 106 85 94 108 99 89 82 85 100 100 99 88 98 102 121 113 99 77 339 97 121 115 80 63 64 61 53 55 48 46 47 45 40
182 187 181 174 170 173 170 158 144 131 146 144 136 110 97 100 108 112 94 108 111 113 105 121 147 143 122 98 0 334 334 86 99 101 66 68 64 53 49 44 44 49 45
177 179 179 165 169 165 167 172 171 179 174 145 131 127 137 139 139 134 127 138 140 129 139 151 98 256 229 161 103 9 8 54 233 130 120 84 68 56 43 45 42 46 45
161 164 174 164 163 158 173 170 189 185 175 150 161 157 162 136 154 163 164 180 185 170 173 167 166 278 217 272 32 104 87 128 240 188 123 103 89 79 63 35 43 45 43
155 155 164 166 160 160 178 184 191 181 186 176 186 180 179 155 175 175 208 205 202 204 184 199 194 200 253 239 275 212 167 177 174 157 197 175 103 79 91 84 39 62 54